Presure
183 173 152 240 217 216 203 215 211 195 214 212 216 198 208 208 205 187 186 183 173 185 219 205 175 179 172 178 153 209 221 221 209 227 218 204 215 224 123 87 93 89 89 184 157 108 207 224 216
176 221 199 221 212 210 219 212 215 216 202 178 173 162 146 185 145 204 209 156 161 186 183 183 126 133 198 202 203 205 206 225 216 215 206 215 199 200 231 202 185 106 84 87 244 182 219 104 225
170 212 222 223 177 179 177 182 182 183 160 177 151 168 184 192 187 120 131 187 179 189 192 183 122 191 191 190 176 178 195 207 205 208 211 227 222 213 184 239 195 90 94 100 89 91 94 139 193
164 227 202 181 185 185 189 189 186 188 190 120 134 124 147 102 194 197 197 122 181 147 187 189 198 148 133 179 178 180 160 193 185 202 196 211 210 220 227 230 213 182 182 89 90 87 92 93 225
161 212 184 179 189 183 163 128 194 138 127 120 125 133 112 130 186 182 124 179 163 197 192 193 114 189 190 190 151 188 176 149 194 185 181 212 194 193 210 219 221 230 176 182 116 85 93 123 130
159 185 182 180 181 179 186 192 132 130 114 121 106 110 116 126 117 133 122 131 140 133 117 186 202 204 199 201 194 193 188 115 184 166 194 168 203 203 216 217 218 217 223 182 183 207 158 95 93
154 183 180 171 173 138 176 153 144 124 118 119 117 111 121 100 123 111 124 133 129 127 156 119 133 136 200 205 203 199 182 138 102 189 139 177 202 185 191 212 195 219 219 193 185 183 181 183 99
155 179 181 176 169 175 155 135 133 130 117 118 112 123 119 135 132 132 125 136 134 132 136 136 146 206 200 189 175 204 119 204 187 111 184 157 190 140 154 172 225 224 224 219 181 227 194 178 169
159 180 177 177 152 136 163 128 122 123 119 126 125 126 121 125 136 142 138 140 129 134 127 117 179 102 187 191 202 186 214 176 119 140 166 172 184 165 183 158 199 200 198 216 212 181 180 177 179
172 172 158 177 175 115 176 135 128 124 130 125 124 124 125 133 132 139 125 144 118 123 127 128 159 122 130 187 178 199 194 210 94 189 193 180 186 159 183 161 186 172 186 200 164 212 232 179 170
171 149 162 177 178 177 173 177 143 134 125 123 133 125 122 138 124 126 121 104 112 113 123 122 127 128 125 107 177 131 198 199 156 210 193 169 175 153 174 176 176 174 190 183 206 198 209 151 181
176 161 152 179 176 133 122 112 124 126 126 133 134 124 129 141 119 128 114 141 133 117 114 118 121 131 132 169 142 194 196 199 199 192 212 204 178 166 171 136 153 174 191 184 203 186 216 206 195
182 171 150 150 162 173 122 124 108 121 124 103 124 115 132 133 120 123 134 120 130 133 118 119 121 123 134 130 169 187 193 188 199 201 203 162 217 197 177 146 176 190 172 182 178 183 190 205 220
187 181 166 152 130 152 183 119 129 120 113 131 149 115 130 139 128 118 138 134 109 113 113 122 121 125 133 128 180 177 177 188 187 188 183 197 212 174 212 148 172 194 160 190 182 193 177 203 193
177 185 182 167 151 149 134 129 148 136 144 132 138 110 110 107 105 109 107 122 111 132 119 118 129 139 128 126 186 181 180 189 193 186 195 185 197 214 201 154 172 189 138 169 165 198 172 170 196
190 178 187 185 179 150 143 128 138 139 123 125 130 125 110 108 110 120 129 114 117 125 117 123 162 189 178 184 188 183 182 179 189 191 185 196 183 200 197 208 190 132 179 176 138 177 163 198 192
190 193 183 187 190 184 171 153 134 130 140 142 133 126 121 126 123 125 127 117 140 134 152 178 180 176 184 194 188 184 184 186 194 195 192 193 209 202 187 188 161 166 151 164 148 169 161 215 182
192 188 185 192 186 190 191 182 169 144 138 137 135 132 129 125 136 126 168 171 177 178 186 191 185 186 189 183 177 172 189 191 198 199 189 199 198 203 200 210 180 161 143 131 163 167 160 210 175
198 203 204 196 203 198 195 200 187 180 176 171 170 171 173 172 172 171 136 176 177 185 189 174 180 190 190 173 175 187 184 211 210 185 204 199 194 189 190 193 190 126 182 142 171 155 148 182 225
187 191 197 200 201 202 203 205 208 204 176 170 168 171 177 172 176 174 172 179 188 184 175 188 182 185 179 176 196 198 198 199 193 192 188 185 182 176 174 171 172 170 132 163 206 167 137 186 180
194 185 181 186 189 190 192 196 197 194 191 190 187 195 184 176 172 181 182 189 171 188 186 184 181 182 192 185 191 194 193 191 191 186 179 176 171 165 175 193 188 187 189 212 206 201 195 194 169
219 197 202 196 191 187 205 203 207 204 171 177 195 181 179 183 180 172 173 184 187 187 186 183 189 200 199 196 196 191 195 191 187 181 173 174 176 189 139 179 195 190 214 201 192 185 183 204 194
188 185 181 185 185 185 177 173 172 174 173 175 179 186 186 184 183 186 185 182 185 193 200 211 210 205 202 197 201 198 193 188 179 173 173 176 188 185 200 208 207 198 219 182 193 134 208 199 199
195 193 190 189 190 187 187 189 185 188 186 186 188 188 189 189 193 201 207 213 219 213 213 208 206 205 198 200 194 182 179 177 174 178 177 182 187 204 209 206 204 211 196 171 215 190 202 182 182
190 192 193 193 194 193 191 195 197 196 196 197 202 202 203 206 209 214 213 212 214 211 203 195 188 189 189 186 184 186 188 187 177 190 189 188 180 211 208 199 176 175 192 201 205 193 187 197 190
173 176 175 171 175 200 195 198 198 195 200 202 207 217 222 220 212 206 206 180 190 193 130 109 184 183 135 183 180 179 177 187 189 183 191 201 198 187 185 202 195 182 163 158 177 176 195 213 198
183 179 178 178 177 172 169 169 175 174 198 220 177 170 170 174 185 191 190 187 97 89 186 183 186 178 181 175 185 186 194 189 197 184 157 188 183 200 177 183 182 195 189 202 213 175 212 184 216
184 184 186 187 190 188 181 177 178 181 185 188 189 184 168 181 183 181 178 179 183 185 180 186 186 189 192 184 193 173 194 183 184 207 198 197 186 191 211 195 191 199 212 171 218 204 225 214 202
192 191 185 187 188 191 191 188 189 183 187 187 182 183 183 179 179 178 179 172 181 183 183 189 192 191 192 195 194 191 195 196 193 201 206 199 194 195 208 214 220 214 233 244 235 219 226 231 220
185 186 187 189 190 190 188 189 187 188 181 180 181 179 177 180 183 181 182 182 183 186 180 194 200 198 178 180 183 190 192 198 208 209 217 213 214 226 225 224 242 226 227 236 245 232 242 218 246
Wind_Speed
26 26 27 10 12 12 15 11 13 13 11 13 13 14 13 14 12 15 18 18 21 21 23 18 27 26 27 28 27 26 23 24 30 24 29 29 28 25 43 40 41 36 32 22 35 37 40 43 49
25 18 16 10 9 8 9 10 11 10 11 14 14 15 14 15 15 16 19 16 17 20 21 23 20 21 23 22 23 22 19 18 20 24 31 28 26 27 25 37 34 46 34 36 5 27 33 33 40
24 15 12 7 18 17 17 13 13 14 15 15 12 15 16 14 14 15 16 19 18 20 21 23 19 23 22 23 27 27 23 20 20 19 20 21 24 27 28 23 35 43 45 47 39 37 35 31 42
23 12 13 15 14 14 13 12 14 14 13 18 14 13 13 16 15 14 16 16 18 19 22 24 24 23 22 28 28 29 26 21 26 18 20 21 20 26 28 25 26 35 36 42 41 35 36 34 31
24 14 19 16 12 14 15 13 12 14 16 19 17 14 16 15 15 14 18 18 18 20 22 24 25 26 27 29 28 28 27 25 20 24 24 20 20 23 26 26 18 27 35 35 44 38 45 41 33
24 20 20 17 14 17 13 11 19 18 19 21 18 17 20 19 20 18 21 20 21 21 21 23 21 23 27 27 29 29 28 25 25 24 23 22 24 21 27 28 23 19 23 38 38 30 31 50 48
26 21 20 20 20 18 17 20 21 21 22 23 22 21 24 15 21 17 22 21 23 24 24 24 24 26 24 26 28 29 29 26 23 27 26 24 25 15 21 25 17 27 26 45 41 36 33 33 57
27 23 21 21 21 21 22 25 26 27 23 27 24 25 24 23 24 25 23 23 24 24 25 27 25 24 25 28 26 30 29 31 28 26 28 30 25 30 28 20 30 32 32 22 44 28 37 36 37
28 24 23 23 25 25 24 28 29 30 26 25 29 28 26 27 25 25 27 27 26 26 26 26 25 25 27 28 29 30 30 31 31 31 28 33 30 28 22 26 25 22 18 29 21 45 43 39 36
26 26 29 26 25 26 27 31 33 34 32 28 29 29 30 29 27 27 29 29 28 28 29 31 30 27 30 31 30 31 32 31 26 33 34 31 34 30 29 33 26 19 16 22 36 24 34 44 42
29 35 31 28 27 27 25 28 34 36 31 33 33 30 32 34 31 30 30 25 28 26 31 32 33 32 31 31 33 29 31 32 34 34 34 32 34 35 32 26 25 22 26 18 34 18 27 51 47
30 34 36 31 30 34 36 32 37 36 34 35 35 33 35 35 34 35 31 36 37 33 31 34 35 37 37 38 41 31 33 33 34 33 35 37 36 35 35 34 34 28 35 29 38 23 39 29 42
32 34 41 38 37 33 39 40 35 36 35 31 35 33 37 38 38 38 39 38 42 42 39 39 39 39 42 40 40 34 33 35 34 34 34 38 37 38 43 38 36 42 26 32 26 29 31 37 45
34 35 39 41 43 37 37 42 46 43 34 42 41 36 40 41 43 41 44 46 33 38 38 44 42 43 47 42 40 41 41 36 36 35 37 36 38 39 38 39 41 42 32 42 35 40 22 39 35
37 37 38 41 44 43 47 48 44 49 48 48 46 38 38 37 35 37 34 48 41 51 45 45 53 54 48 46 40 42 41 37 37 39 37 40 38 39 40 39 41 45 43 34 30 46 27 24 45
39 39 41 41 42 46 48 53 51 52 50 52 50 49 43 41 46 53 54 48 49 56 51 55 52 43 46 45 43 44 43 43 40 39 41 39 42 39 40 41 40 41 45 45 42 43 23 36 47
39 41 42 43 45 45 46 53 56 54 54 55 58 54 52 55 58 58 58 55 60 62 57 49 48 49 48 46 45 46 46 44 42 41 41 42 40 41 44 45 44 43 45 41 42 42 41 44 45
40 42 43 45 46 47 48 49 52 58 59 60 62 62 60 59 62 63 54 54 53 51 50 48 48 49 47 47 48 49 47 46 43 42 42 42 43 42 43 43 51 46 39 49 49 51 37 47 54
39 40 42 45 46 48 48 49 51 53 54 55 57 59 58 55 53 54 68 55 54 52 50 50 50 49 48 51 51 49 48 47 45 43 42 41 43 44 44 47 49 49 52 45 56 45 52 61 40
39 40 42 44 45 48 48 47 46 48 54 57 58 60 60 58 56 55 56 56 54 53 53 51 51 50 52 53 49 48 47 46 46 45 45 44 46 49 50 51 51 53 51 56 54 54 57 53 62
40 42 44 45 45 47 48 48 46 50 53 54 56 56 59 59 59 58 57 56 58 55 54 53 53 52 52 52 51 50 50 50 49 49 49 49 51 53 56 53 55 56 55 52 50 52 53 53 55
36 39 45 47 48 50 48 51 50 48 52 54 54 58 59 59 60 58 59 60 57 56 55 56 55 52 52 52 51 52 53 53 52 52 55 56 57 55 49 61 57 56 55 52 55 56 63 51 56
43 44 46 47 48 51 51 50 55 49 53 56 59 59 60 61 63 61 59 60 60 59 59 56 53 53 53 53 53 54 53 54 58 60 62 62 61 61 58 58 58 59 58 62 56 61 59 57 57
45 46 47 49 51 53 55 55 59 56 56 58 60 60 62 65 67 64 62 59 53 55 55 54 53 52 52 53 52 56 59 61 64 64 66 66 64 63 63 61 60 61 59 73 61 69 59 60 70
47 49 49 49 53 54 56 56 61 60 62 62 60 61 62 65 65 63 60 60 57 54 55 56 57 56 56 57 57 60 62 62 67 68 70 69 70 71 68 66 59 69 66 63 63 67 76 68 68
55 54 54 51 53 55 60 59 61 63 65 64 63 62 59 59 62 62 61 64 61 59 65 43 62 63 63 63 64 66 68 69 71 71 72 75 72 68 71 72 71 80 80 65 77 89 72 78 79
57 60 61 57 54 54 60 61 61 62 64 61 62 65 66 66 65 65 65 65 35 34 66 66 66 69 68 64 69 71 77 74 79 76 77 77 79 80 85 83 83 80 83 82 89 95 86 90 82
63 62 63 64 59 58 60 61 64 66 66 63 61 64 70 67 67 70 71 72 71 71 71 72 74 74 77 71 80 73 80 77 81 87 83 85 85 85 91 86 88 87 95 93 95 91 95 93 92
66 66 68 66 63 62 58 61 64 67 63 62 64 66 68 70 72 73 75 77 78 79 80 83 85 85 88 90 89 86 89 88 88 92 92 89 91 91 94 97 101 100 104 105 99 96 95 93 95
68 70 72 72 68 67 68 60 68 69 67 67 70 71 73 74 75 75 77 79 80 83 84 89 90 90 85 87 91 96 95 100 104 104 106 102 102 108 107 107 114 100 101 106 109 99 103 101 105
Wind_Direction
294 293 293 264 291 275 288 260 269 298 239 247 235 268 264 275 281 272 279 275 279 279 287 278 279 281 279 280 274 283 278 277 281 281 282 281 277 284 248 236 236 234 235 235 242 235 232 232 234
292 290 280 280 276 266 245 256 251 253 269 290 294 282 279 273 284 278 281 282 282 284 282 279 266 288 282 282 283 283 290 286 279 281 277 287 274 271 290 249 264 240 230 234 271 242 244 238 231
291 276 273 261 293 289 292 288 280 272 271 278 262 276 279 285 285 278 275 284 282 283 284 283 271 289 283 285 290 292 290 282 286 287 291 308 294 290 269 293 249 234 233 237 235 238 237 240 232
287 261 269 285 277 279 275 271 270 272 274 264 264 269 281 266 287 288 287 296 283 274 285 282 280 276 281 284 285 291 284 283 274 288 280 301 302 307 303 300 254 258 257 235 235 239 244 241 230
283 264 280 281 276 273 267 261 289 253 261 269 272 279 281 290 283 287 291 285 279 280 280 278 264 278 279 275 272 283 284 271 280 269 279 301 291 294 307 293 279 279 245 254 237 237 238 239 240
277 273 276 277 274 273 287 289 258 256 270 272 275 285 282 284 282 293 289 298 308 300 285 285 277 278 277 276 279 280 281 269 286 273 295 267 303 312 305 301 300 292 283 248 254 224 245 237 239
268 269 271 268 271 263 279 255 261 263 271 272 273 285 281 249 283 278 291 295 293 295 302 293 296 282 278 278 279 278 278 275 259 291 267 269 298 286 309 291 293 297 293 230 244 243 240 247 239
263 269 268 269 271 274 261 253 256 258 269 271 276 274 280 290 290 290 292 293 294 295 299 300 298 282 285 292 274 279 264 275 282 271 287 272 288 249 265 277 286 292 292 290 244 284 232 243 228
263 264 267 268 260 261 262 258 265 265 265 263 274 277 279 285 291 292 293 293 292 294 295 293 292 260 290 289 283 293 278 273 266 276 280 282 285 261 293 256 290 294 306 297 292 241 242 244 242
262 266 253 262 265 255 271 254 258 267 269 269 268 276 280 284 284 286 288 291 297 296 294 293 295 291 299 290 290 287 290 280 259 275 275 282 285 259 294 265 300 256 294 307 252 291 283 241 239
261 252 257 264 262 264 262 268 257 255 265 270 272 272 278 282 278 281 280 288 293 295 293 292 294 293 294 271 294 272 288 287 271 278 274 277 280 260 286 286 283 271 301 283 295 294 296 244 236
259 254 253 262 263 256 259 265 266 264 260 261 266 274 274 278 279 282 281 284 284 289 292 291 293 295 297 293 300 289 289 289 286 282 277 275 272 270 279 264 262 288 297 297 288 277 284 300 241
257 255 253 251 256 261 264 262 266 264 265 269 268 275 270 275 279 279 281 283 282 284 289 291 294 293 294 295 290 286 286 287 286 285 281 273 273 267 278 260 287 289 281 290 256 297 298 287 289
261 257 255 256 256 254 264 267 262 267 272 268 271 274 269 272 272 281 276 278 289 289 289 286 290 290 293 293 283 283 284 282 281 277 276 277 275 265 266 253 271 276 254 288 269 290 285 277 294
261 262 259 257 256 256 260 260 260 264 265 269 269 274 275 276 279 282 285 281 289 281 287 291 289 290 290 291 278 279 280 279 277 276 276 275 274 272 269 258 276 273 253 284 260 276 273 261 281
259 261 261 260 259 259 261 265 263 264 268 269 270 269 275 277 280 280 280 288 287 285 289 290 285 281 283 281 278 278 278 279 277 274 274 271 274 267 268 268 271 256 274 280 251 287 244 265 282
262 261 263 262 263 262 261 262 267 267 268 268 268 272 275 274 274 275 276 285 279 283 285 285 285 284 282 279 280 279 278 277 278 277 274 270 270 269 266 264 255 276 266 273 255 283 264 267 266
264 265 265 264 265 266 266 265 267 268 268 269 270 270 271 274 275 278 284 283 283 284 286 285 284 284 283 283 282 282 281 281 278 276 276 274 272 269 267 265 266 274 258 248 278 269 270 269 269
266 267 269 268 270 266 265 265 267 269 271 271 272 274 276 277 278 279 280 283 284 286 286 284 284 283 282 281 281 281 280 280 278 277 277 275 273 272 270 269 267 251 266 256 273 269 244 272 259
270 270 269 270 270 271 271 271 272 271 270 273 275 277 278 278 280 279 281 284 285 285 284 285 283 283 281 281 284 283 281 280 279 277 275 273 272 272 271 268 267 269 247 271 269 252 252 258 269
272 272 272 273 272 273 275 275 273 273 273 274 276 277 280 282 281 284 283 283 281 284 284 283 282 282 283 282 282 280 279 278 276 276 277 276 273 268 272 274 272 271 270 277 271 269 263 267 247
270 272 273 275 277 278 278 278 278 277 273 275 278 278 279 280 279 278 279 282 282 283 283 283 283 282 281 280 279 278 277 277 278 277 273 272 271 272 266 270 273 269 276 268 268 267 264 260 257
271 271 273 276 278 278 275 272 272 271 273 275 279 281 281 281 280 280 281 282 284 284 284 283 282 280 279 280 278 277 277 276 273 272 273 272 273 271 277 280 279 272 278 261 261 258 272 256 255
276 276 276 277 278 278 279 281 279 279 277 277 278 280 281 281 283 286 286 284 282 282 283 284 284 282 279 280 278 273 273 273 274 274 273 272 273 283 283 278 275 277 267 266 279 267 265 260 253
279 278 278 278 280 280 281 282 282 284 284 283 284 283 283 283 284 284 285 286 286 284 283 283 282 281 280 278 276 278 278 275 270 282 280 277 269 288 283 275 269 260 266 270 275 253 254 257 263
279 278 276 274 278 280 281 282 284 285 284 284 284 284 283 281 283 284 285 284 286 286 279 284 285 284 282 281 278 276 274 283 284 278 283 285 283 272 265 280 271 255 269 271 267 261 255 274 257
278 278 277 277 276 275 277 280 281 281 281 283 283 282 282 283 284 285 285 285 265 269 286 284 285 280 282 285 285 284 287 283 287 278 286 274 269 281 261 262 260 268 258 272 281 265 276 253 271
282 282 282 281 281 278 279 280 279 280 281 284 284 282 280 281 283 283 283 284 287 287 284 288 288 288 289 281 289 273 285 274 274 288 281 277 270 273 284 272 266 271 280 269 279 268 276 272 262
286 285 283 283 282 282 281 282 281 279 282 283 280 279 280 281 281 283 286 284 289 291 291 292 292 292 292 291 291 288 288 287 282 286 286 279 273 274 282 283 284 276 281 282 279 271 272 271 264
283 284 284 285 285 286 283 284 279 280 277 277 275 275 276 277 280 281 283 285 286 287 287 288 289 289 287 285 286 289 287 288 289 287 286 284 283 284 283 282 284 279 279 278 277 271 277 264 273